Home > Weather > Dieppe > Past weeks

Flag for Canada Past Weather in Dieppe, New Brunswick, Canada — Yesterday and Last 2 Weeks

Now
57 °F

Broken clouds.


Feels Like: 56 °F
Forecast: 56 / 72 °F
Wind: 7 mph from Southeast

Location: Moncton

Current Time: May 25, 2016 at 8:21:10 AM

Latest Report: May 25, 2016 at 7:00 AM


Visibility: 15 mi

Pressure: 29.98 "Hg

Humidity: 94%

Dew Point: 55 °F

Location of DieppeLocation

Past Weather in Dieppe — Graph

°F

Dieppe Temperature Yesterday

Maximum temperature yesterday: 75 °F (at 4:00 PM)
Minimum temperature yesterday: 48 °F (at 12:00 AM)
Average temperature yesterday: 62 °F

High & Low Weather Summary for the Past Weeks

 TemperatureHumidityPressure
High81 °F (May 21, 2:00 PM)100% (May 14, 11:00 AM)30.14 "Hg (May 14, 11:00 AM)
Low32 °F (May 13, 6:00 AM)21% (May 21, 6:00 PM)29.37 "Hg (May 16, 1:00 AM)
Average53 °F68%29.88 "Hg
* Reported May 10 7:00 AM — May 25 7:00 AM, Dieppe, Weather by CustomWeather, © 2016

Note: Actual official high and low records may vary slightly from our data, if they occured in-between our weather recording intervals... More about our weather records

Advertising

Dieppe Weather History for the Previous 24 Hours

Scroll right to see more
 ConditionsComfort  
Time TempWeatherWind HumidityBarometerVisibility
7:00 AM
Wed, May 25
57 °FBroken clouds.7 mph94%29.98 "Hg15 mi
6:00 AM55 °FPassing clouds.5 mph94%29.97 "Hg15 mi
5:00 AM59 °FPassing clouds.8 mph94%29.96 "Hg15 mi
4:00 AM57 °FPassing clouds.6 mph100%29.96 "Hg15 mi
3:00 AM57 °FPassing clouds.6 mph94%29.96 "Hg15 mi
2:00 AM59 °FPassing clouds.6 mph94%29.96 "Hg15 mi
1:00 AM61 °FPassing clouds.7 mph94%29.96 "Hg15 mi
12:00 AM61 °FPassing clouds.8 mph94%29.98 "Hg15 mi
11:00 PM
Tue, May 24
63 °FPassing clouds.9 mph88%29.98 "Hg15 mi
10:00 PM64 °FPassing clouds.9 mph83%29.98 "Hg15 mi
9:00 PM66 °FPassing clouds.10 mph83%29.97 "Hg15 mi
8:00 PM68 °FPassing clouds.10 mph78%29.97 "Hg15 mi
7:00 PM70 °FScattered clouds.12 mph73%29.96 "Hg15 mi
6:00 PM73 °FPassing clouds.16 mph65%29.96 "Hg15 mi
5:00 PM75 °FPassing clouds.17 mph57%29.96 "Hg15 mi
4:00 PM75 °FPassing clouds.14 mph57%29.97 "Hg15 mi
3:00 PM73 °FPartly sunny.12 mph57%29.99 "Hg15 mi
2:00 PM73 °FPartly sunny.8 mph57%30.00 "Hg15 mi
1:00 PM72 °FScattered clouds.9 mph65%30.01 "Hg15 mi
12:00 PM68 °FScattered clouds.No wind69%30.01 "Hg15 mi
11:00 AM64 °FPartly sunny.5 mph68%30.02 "Hg15 mi
10:00 AM63 °FPartly sunny.7 mph73%30.03 "Hg15 mi
9:00 AM59 °FPartly sunny.7 mph82%30.03 "Hg15 mi
8:00 AM57 °FScattered clouds.6 mph88%30.02 "Hg15 mi
Weather by CustomWeather, © 2016

See weather overviewHow to use our weather pages